Regional Weather Roundup
Issued by NWS

Home | Current Version | Previous Version | Text Only | Print | Product List | Glossary On
Versions: 1 2 3 4 5 6 7 8 9 10 11 12 13 14 15 16 17 18 19 20 21 22 23 24 25 26 27 28 29 30 31 32 33 34 35 36 37 38 39 40 41 42 43 44 45 46 47 48 49 50
000
ASUS46 KLOX 042213
RWRCA

SOUTHERN CALIFORNIA WEATHER ROUNDUP
NATIONAL WEATHER SERVICE OXNARD CALIFORNIA
300 PM PDT SAT JUL 04 2015

NOTE: "FAIR" INDICATES FEW OR NO CLOUDS BELOW 12,000 FEET WITH NO
SIGNIFICANT WEATHER AND/OR OBSTRUCTIONS TO VISIBILITY.

  -  STATIONS PRECEEDED BY AN ASTERISK (*) ARE NOT NWS OR FAA
     STATIONS AND ARE NOT SUBJECT TO NWS AND FAA QUALITY CONTROL.

CAZ041-042-087-042300-
LA AND ORANGE COUNTY COASTAL AREAS


CITY           SKY/WX    TMP DP  RH WIND       PRES   REMARKS
L.A. DOWNTOWN  SUNNY     75  60  59 MISG      29.88S
L.A. AIRPORT   MOSUNNY   70  60  70 SW15      29.90F
LONG BEACH     NOT AVBL

CITY           SKY/WX    TMP DP  RH WIND       PRES   REMARKS
AVALON           N/A     68 N/A N/A MISG        N/A
FULLERTON      SUNNY     77  59  53 SW8       29.88F
*GETTY CENTER    N/A     72  59  64 S9          N/A
HAWTHORNE      SUNNY     73  59  61 W12       29.89F
*LOS ALAMITOS  SUNNY     74  61  64 SW14      29.89F
*REDONDO BEACH   N/A     74  61  63 W2        29.90S
SANTA ANA      MOSUNNY   74  60  61 SW9       29.89F
STA MONICA APT MOSUNNY   68  59  73 SW7       29.90F
TORRANCE       MOSUNNY   79  61  53 SW13      29.89F
*UCLA            N/A     70  57  64 S7        29.86F

$$

CAZ547-548-048-042300-
LA COUNTY VALLEYS AND INLAND EMPIRE


CITY           SKY/WX    TMP DP  RH WIND       PRES   REMARKS
BURBANK        SUNNY     80  59  48 S12       29.87F
VAN NUYS       SUNNY     83  58  42 SE12      29.87S

CITY           SKY/WX    TMP DP  RH WIND       PRES   REMARKS
CORONA AIRPORT CLOUDY    84  60  44 W20       29.85F
*CHATSWORTH      N/A     86  61  42 CALM      29.83F
CHINO          MOSUNNY   88  57  34 SW15      29.87F
MARCH AFB      SUNNY     88  55  32 NW13      29.87F
*NORTHRIDGE      N/A     84  55  37 E5G12       N/A
ONTARIO        MOSUNNY   87  56  34 W16G22    29.87F
*PASADENA        N/A     84  63  48 E9          N/A
POMONA         SUNNY     82  57  42 W10       29.91F
RIVERSIDE      SUNNY     87  56  34 W14G20    29.86F
SAN BERNARDINO MOSUNNY   90  50  25 W12       29.86F
*WHITEMAN AP   SUNNY     82  59  44 S9        29.91F
*WOODLAND HILL   N/A     88  55  33 NE5         N/A

$$

CAZ054-055-042300-
LA AND SAN BERNARDINO COUNTY MOUNTAINS


CITY           SKY/WX    TMP DP  RH WIND       PRES   REMARKS
*BIG BEAR AIRP CLOUDY    75  45  33 NE7       30.21S
SANDBERG       SUNNY     90  43  19 S20G26    30.04F

$$

CAZ028-029-059-060-099-042300-
ANTELOPE VALLEY AND SURROUNDING AREAS


CITY           SKY/WX    TMP DP  RH WIND       PRES   REMARKS
LANCASTER      SUNNY     99  47  17 SW21      29.85F HX  95
PALMDALE       SUNNY     99  48  17 W23G30    29.86F HX  95

CITY           SKY/WX    TMP DP  RH WIND       PRES   REMARKS
29 PALMS       MOSUNNY  104  47  14 SE14G21   29.86F HX 100
BARSTOW/DAGGET MOSUNNY  105  36   9 N12       29.78F HX  99
BISHOP         MOSUNNY   91  48  22 N16G25    29.99F
CHINA LAKE     SUNNY    104  39  10 SE6       29.80F HX  98
EDWARDS AFB    MOSUNNY  102  34   9 VRB3      29.81F HX  95
MOJAVE         FAIR      99  41  13 CALM      29.87F HX  94
NEEDLES        MOSUNNY  107  48  14 E9G17     29.73F HX 103
VICTORVILLE    SUNNY     99  39  12 S15G23    29.87F HX  94

$$

CAZ039-040-042300-
VENTURA AND SANTA BARBARA COUNTY COAST


CITY           SKY/WX    TMP DP  RH WIND       PRES   REMARKS
CAMARILLO      MOSUNNY   71  58  63 SW9       29.89F
OXNARD AIRPORT CLOUDY    68  59  73 W12       29.90F
*POINT MUGU    PTSUNNY   69  59  70 W8        29.91F
SBA APT/GOLETA MOSUNNY   70  59  68 SW12      29.90F
*SANTA BARBARA   N/A     75  59  56 NE3       29.98S
*VENTURA         N/A     73  59  60 SW3       29.50S

$$

CAZ044-045-042300-
VENTURA COUNTY VALLEYS


CITY           SKY/WX    TMP DP  RH WIND       PRES   REMARKS
*SIMI VALLEY     N/A     79  61  54 SW6       29.82F
*OJAI            N/A     85  60  42 CALM      29.80S
*FILLMORE        N/A     81  62  52 CALM      29.77S

$$

CAZ053-042300-
VENTURA COUNTY MOUNTAINS


CITY           SKY/WX    TMP DP  RH WIND       PRES   REMARKS

$$

CAZ034-035-036-042300-
CENTRAL COAST AND SANTA YNEZ VALLEY


CITY           SKY/WX    TMP DP  RH WIND       PRES   REMARKS
SAN LUIS OBISP MOSUNNY   74  57  55 W9        29.89S
SANTA MARIA    MOSUNNY   74  58  57 NW14      29.91S

CITY           SKY/WX    TMP DP  RH WIND       PRES   REMARKS
*CAL POLY SLO    N/A    N/A N/A N/A W7          N/A
*LOMPOC        SUNNY     72  55  56 W16       29.93R
*PISMO BEACH     N/A     63  60  90 SW12      29.93S
*SANTA YNEZ    FAIR      84  54  34 W14       29.87S

$$

CAZ037-038-051-042300-
SAN LUIS OBISPO COUNTY INTERIOR AND CUYAMA VALLEY


CITY           SKY/WX    TMP DP  RH WIND       PRES   REMARKS
*CUYAMA          N/A     94  53  24 W13       29.70S HX  91
PASO ROBLES    SUNNY     82  55  39 S24       29.82F

$$

CAZ032-033-061-042300-
SOUTHERN DESERTS


CITY           SKY/WX    TMP DP  RH WIND       PRES   REMARKS
BLYTHE         MOSUNNY  108  55  17 S20       29.70F HX 107
IMPERIAL       SUNNY    108  57  18 SE18G24   29.66F HX 108
PALM SPRINGS   MOSUNNY  110  52  14 NW10G23   29.70F HX 107
THERMAL        SUNNY    110  53  15 SE16G23   29.63F HX 108

$$

ELSEWHERE ACROSS THE WESTERN UNITED STATES AND MEXICO


CITY           SKY/WX    TMP DP  RH WIND       PRES   REMARKS
DENVER, CO     PTSUNNY   91  44  19 N8        29.97F
GRAND CANYON,  PTSUNNY   78  50  37 W12G20    30.18F
HONOLULU, HI   MOSUNNY   88  66  48 NE10G21   29.94S HX  90
KAHULUI, MAUI  MOSUNNY   90  68  48 NE18      29.93F HX  93
LAKE TAHOE, CA CLOUDY    70  53  54 S3        30.21R
LAS VEGAS, NV  PTSUNNY  102  43  13 CALM      29.81F HX  97
MAMMOTH LAKES, FAIR      75  41  29 E9        30.24S
MEXICO CITY, M CLOUDY    64  52  63 NE7       30.28
PHOENIX, AZ    MOSUNNY  104  51  17 W15       29.77F HX 101
PORTLAND, OR   MOSUNNY   91  54  28 VRB6      29.78F
RENO, NV       CLOUDY    78  51  38 E6        30.08R
SALT LAKE CITY PTSUNNY   97  51  21 NW8       29.86F HX  94
SAN DIEGO, CA  MOSUNNY   73  59  61 NW9G17    29.92S
SAN FRANCISCO, MOSUNNY   70  57  63 W25G32    29.84F
SAN JOSE, CA   MOSUNNY   78  61  55 NW13      29.82F
SEATTLE, WA    MOSUNNY   90  44  20 NW9       29.84F
TIJUANA, MEX   SUNNY     73  57  56 W18       29.92F

$$

STATION/POSITION TIME  TEMP    WIND        PRES    VSBY  WAVE
                       AIR SEA DIR/SP/G                  HT/PER
                 (UTC) (F)     (DEG/KT/KT) (MB)    (MI)  (FT/S)
POINT ARGUELLO B NOT AVBL
WEST SANTA BARBA 2150   60 61  290/ 10/ 12 1012.3F         3/15
POINT CONCEPTION NOT AVBL
EAST SANTA BARBA 2100   61 64  260/ 12/ 16 1013.5S
SANTA MONICA BAY 2150   64 68  280/ 12/ 14 1012.6F         2/15


USA.gov is the U.S. government's official web portal to all federal, state and local government web resources and services.